| time (UTC) | temp F | wind direction | speed MPH | gust MPH | rain 1hr in | rain 24hr in | rain mn in | humidity % | barometer mb |
| 20260902185221 | 70 | 222 | 0.0 | 5.0 | 0.00 | 0.00 | 0.00 | 44 | 1015.8 |
| 20260902185010 | 69 | 222 | 0.0 | 5.0 | 0.00 | 0.00 | 0.00 | 44 | 1015.9 |
| 20260902184800 | 68 | 198 | 0.0 | 2.0 | 0.00 | 0.00 | 0.00 | 45 | 1015.8 |
| 20260902184558 | 68 | 198 | 0.0 | 0.0 | 0.00 | 0.00 | 0.00 | 44 | 1015.9 |
| 20260902184208 | 68 | 202 | 0.0 | 6.0 | 0.00 | 0.00 | 0.00 | 45 | 1016.0 |
| 20260902183959 | 68 | 204 | 1.0 | 6.0 | 0.00 | 0.00 | 0.00 | 45 | 1016.0 |
| 20260902183746 | 68 | 204 | 1.0 | 6.0 | 0.00 | 0.00 | 0.00 | 45 | 1016.0 |
| 20260902183354 | 67 | 80 | 1.0 | 6.0 | 0.00 | 0.00 | 0.00 | 46 | 1015.9 |
| 20260902183145 | 67 | 211 | 2.0 | 6.0 | 0.00 | 0.00 | 0.00 | 46 | 1015.9 |
| 20260902182933 | 67 | 207 | 1.0 | 6.0 | 0.00 | 0.00 | 0.00 | 46 | 1015.9 |
| 20260902182726 | 67 | 221 | 1.0 | 6.0 | 0.00 | 0.00 | 0.00 | 46 | 1015.8 |
| 20260902182518 | 66 | 209 | 0.0 | 5.0 | 0.00 | 0.00 | 0.00 | 47 | 1015.9 |
| 20260902182308 | 66 | 217 | 0.0 | 4.0 | 0.00 | 0.00 | 0.00 | 47 | 1015.8 |
| 20260902182100 | 66 | 194 | 0.0 | 1.0 | 0.00 | 0.00 | 0.00 | 47 | 1015.9 |
| 20260902181853 | 66 | 194 | 0.0 | 0.0 | 0.00 | 0.00 | 0.00 | 47 | 1015.9 |
| 20260902181641 | 66 | 194 | 1.0 | 7.0 | 0.00 | 0.00 | 0.00 | 47 | 1015.9 |
| 20260902181437 | 66 | 194 | 0.0 | 4.0 | 0.00 | 0.00 | 0.00 | 48 | 1016.0 |
| 20260902180903 | 66 | 175 | 2.0 | 4.0 | 0.00 | 0.00 | 0.00 | 48 | 1016.0 |
| 20260902180650 | 65 | 219 | 2.0 | 4.0 | 0.00 | 0.00 | 0.00 | 48 | 1016.0 |
| 20260902180439 | 65 | 336 | 2.0 | 7.0 | 0.00 | 0.00 | 0.00 | 48 | 1016.0 |
| 20260902180235 | 65 | 335 | 2.0 | 7.0 | 0.00 | 0.00 | 0.00 | 48 | 1016.1 |
| 20260902180025 | 65 | 292 | 1.0 | 7.0 | 0.00 | 0.00 | 0.00 | 49 | 1016.1 |
| 20260902175628 | 65 | 298 | 1.0 | 7.0 | 0.00 | 0.00 | 0.00 | 50 | 1016.1 |
| 20260902175049 | 64 | 216 | 1.0 | 7.0 | 0.00 | 0.00 | 0.00 | 50 | 1016.1 |
| 20260902174846 | 64 | 216 | 2.0 | 7.0 | 0.00 | 0.00 | 0.00 | 50 | 1016.1 |
| 20260902174458 | 64 | 216 | 2.0 | 7.0 | 0.00 | 0.00 | 0.00 | 50 | 1016.1 |
| 20260902174253 | 64 | 216 | 1.0 | 7.0 | 0.00 | 0.00 | 0.00 | 51 | 1016.2 |
| 20260902174044 | 64 | 215 | 1.0 | 7.0 | 0.00 | 0.00 | 0.00 | 51 | 1016.2 |
| 20260902173833 | 63 | 215 | 1.0 | 7.0 | 0.00 | 0.00 | 0.00 | 51 | 1016.1 |
| 20260902173620 | 63 | 247 | 0.0 | 5.0 | 0.00 | 0.00 | 0.00 | 51 | 1016.1 |
| 20260902173415 | 63 | 217 | 1.0 | 5.0 | 0.00 | 0.00 | 0.00 | 52 | 1016.1 |
| 20260902173021 | 63 | 218 | 1.0 | 5.0 | 0.00 | 0.00 | 0.00 | 52 | 1016.1 |
| 20260902172624 | 62 | 219 | 1.0 | 5.0 | 0.00 | 0.00 | 0.00 | 52 | 1016.1 |
| 20260902172413 | 62 | 219 | 0.0 | 5.0 | 0.00 | 0.00 | 0.00 | 53 | 1016.0 |
| 20260902172211 | 62 | 219 | 0.0 | 3.0 | 0.00 | 0.00 | 0.00 | 52 | 1016.0 |
| 20260902172000 | 62 | 218 | 0.0 | 2.0 | 0.00 | 0.00 | 0.00 | 54 | 1016.0 |
| 20260902171754 | 61 | 218 | 0.0 | 4.0 | 0.00 | 0.00 | 0.00 | 54 | 1016.0 |
| 20260902171549 | 61 | 216 | 0.0 | 1.0 | 0.00 | 0.00 | 0.00 | 54 | 1016.0 |
| 20260902171338 | 61 | 216 | 1.0 | 6.0 | 0.00 | 0.00 | 0.00 | 54 | 1016.0 |
| 20260902171126 | 61 | 216 | 1.0 | 6.0 | 0.00 | 0.00 | 0.00 | 55 | 1016.0 |
| 20260902170923 | 61 | 216 | 0.0 | 6.0 | 0.00 | 0.00 | 0.00 | 55 | 1016.0 |
| 20260902170718 | 60 | 216 | 1.0 | 6.0 | 0.00 | 0.00 | 0.00 | 56 | 1015.9 |
| 20260902170512 | 60 | 216 | 1.0 | 6.0 | 0.00 | 0.00 | 0.00 | 56 | 1015.9 |
| 20260902170259 | 60 | 217 | 1.0 | 6.0 | 0.00 | 0.00 | 0.00 | 56 | 1015.9 |
| 20260902170051 | 60 | 216 | 1.0 | 6.0 | 0.00 | 0.00 | 0.00 | 57 | 1015.9 |
| 20260902165838 | 59 | 216 | 1.0 | 6.0 | 0.00 | 0.00 | 0.00 | 57 | 1015.9 |
| 20260902165627 | 59 | 216 | 1.0 | 6.0 | 0.00 | 0.00 | 0.00 | 58 | 1015.9 |
| 20260902165424 | 59 | 227 | 1.0 | 5.0 | 0.00 | 0.00 | 0.00 | 59 | 1015.9 |
| 20260902165213 | 58 | 242 | 0.0 | 3.0 | 0.00 | 0.00 | 0.00 | 59 | 1015.9 |
| 20260902165011 | 58 | 242 | 0.0 | 3.0 | 0.00 | 0.00 | 0.00 | 60 | 1015.9 |
| 20260902164806 | 58 | 242 | 0.0 | 3.0 | 0.00 | 0.00 | 0.00 | 60 | 1015.8 |
| 20260902164601 | 57 | 242 | 0.0 | 3.0 | 0.00 | 0.00 | 0.00 | 61 | 1015.9 |
| 20260902164204 | 57 | 217 | 0.0 | 2.0 | 0.00 | 0.00 | 0.00 | 61 | 1015.8 |
| 20260902163956 | 57 | 218 | 0.0 | 0.0 | 0.00 | 0.00 | 0.00 | 62 | 1015.8 |
| 20260902163744 | 56 | 218 | 0.0 | 5.0 | 0.00 | 0.00 | 0.00 | 62 | 1015.9 |
| 20260902163541 | 56 | 220 | 0.0 | 5.0 | 0.00 | 0.00 | 0.00 | 63 | 1015.9 |
| 20260902163329 | 56 | 220 | 0.0 | 5.0 | 0.00 | 0.00 | 0.00 | 64 | 1015.9 |
| 20260902163119 | 55 | 272 | 0.0 | 0.0 | 0.00 | 0.00 | 0.00 | 65 | 1016.0 |
| 20260902162914 | 55 | 272 | 0.0 | 0.0 | 0.00 | 0.00 | 0.00 | 65 | 1015.9 |
| 20260902162701 | 55 | 272 | 0.0 | 2.0 | 0.00 | 0.00 | 0.00 | 65 | 1016.0 |
| 20260902162455 | 54 | 272 | 0.0 | 1.0 | 0.00 | 0.00 | 0.00 | 66 | 1016.0 |
| 20260902162248 | 54 | 272 | 0.0 | 0.0 | 0.00 | 0.00 | 0.00 | 67 | 1016.0 |
| 20260902162042 | 54 | 272 | 0.0 | 0.0 | 0.00 | 0.00 | 0.00 | 67 | 1016.0 |
| 20260902161834 | 53 | 272 | 0.0 | 2.0 | 0.00 | 0.00 | 0.00 | 68 | 1016.0 |
| 20260902161302 | 53 | 272 | 0.0 | 0.0 | 0.00 | 0.00 | 0.00 | 69 | 1016.0 |
| 20260902161056 | 53 | 272 | 0.0 | 2.0 | 0.00 | 0.00 | 0.00 | 70 | 1016.0 |
| 20260902160705 | 52 | 272 | 0.0 | 2.0 | 0.00 | 0.00 | 0.00 | 71 | 1016.1 |
| 20260902160456 | 52 | 272 | 0.0 | 2.0 | 0.00 | 0.00 | 0.00 | 71 | 1016.1 |
| 20260902160107 | 51 | 272 | 0.0 | 2.0 | 0.00 | 0.00 | 0.00 | 72 | 1016.0 |
| 20260902155857 | 51 | 272 | 0.0 | 0.0 | 0.00 | 0.00 | 0.00 | 72 | 1016.0 |
| 20260902155650 | 51 | 272 | 0.0 | 2.0 | 0.00 | 0.00 | 0.00 | 73 | 1016.1 |
| 20260902155445 | 51 | 272 | 0.0 | 1.0 | 0.00 | 0.00 | 0.00 | 73 | 1016.0 |
| 20260902155244 | 50 | 272 | 0.0 | 1.0 | 0.00 | 0.00 | 0.00 | 74 | 1016.0 |
| 20260902155034 | 50 | 272 | 0.0 | 0.0 | 0.00 | 0.00 | 0.00 | 74 | 1016.0 |
| 20260902154821 | 50 | 272 | 0.0 | 0.0 | 0.00 | 0.00 | 0.00 | 74 | 1016.1 |
| 20260902154429 | 50 | 272 | 0.0 | 0.0 | 0.00 | 0.00 | 0.00 | 74 | 1016.0 |
| 20260902154226 | 49 | 272 | 0.0 | 0.0 | 0.00 | 0.00 | 0.00 | 74 | 1016.1 |
| 20260902154012 | 49 | 272 | 0.0 | 2.0 | 0.00 | 0.00 | 0.00 | 74 | 1016.1 |
| 20260902153806 | 49 | 273 | 0.0 | 0.0 | 0.00 | 0.00 | 0.00 | 74 | 1016.1 |
| 20260902153555 | 49 | 273 | 0.0 | 0.0 | 0.00 | 0.00 | 0.00 | 74 | 1016.1 |
| 20260902153350 | 49 | 272 | 0.0 | 0.0 | 0.00 | 0.00 | 0.00 | 74 | 1016.0 |
| 20260902152957 | 48 | 272 | 0.0 | 0.0 | 0.00 | 0.00 | 0.00 | 73 | 1016.0 |
| 20260902152752 | 48 | 272 | 0.0 | 0.0 | 0.00 | 0.00 | 0.00 | 73 | 1016.0 |
| 20260902152540 | 48 | 273 | 0.0 | 0.0 | 0.00 | 0.00 | 0.00 | 73 | 1016.0 |
| 20260902152333 | 48 | 273 | 0.0 | 0.0 | 0.00 | 0.00 | 0.00 | 73 | 1016.0 |
| 20260902152129 | 48 | 273 | 0.0 | 0.0 | 0.00 | 0.00 | 0.00 | 72 | 1015.9 |
| 20260902151921 | 48 | 272 | 0.0 | 0.0 | 0.00 | 0.00 | 0.00 | 72 | 1015.9 |
| 20260902151524 | 48 | 273 | 0.0 | 0.0 | 0.00 | 0.00 | 0.00 | 71 | 1015.9 |
| 20260902151314 | 48 | 273 | 0.0 | 0.0 | 0.00 | 0.00 | 0.00 | 71 | 1015.9 |
| 20260902151108 | 48 | 272 | 0.0 | 0.0 | 0.00 | 0.00 | 0.00 | 71 | 1015.9 |
| 20260902150856 | 47 | 273 | 0.0 | 0.0 | 0.00 | 0.00 | 0.00 | 71 | 1015.8 |
| 20260902150650 | 47 | 273 | 0.0 | 0.0 | 0.00 | 0.00 | 0.00 | 71 | 1015.8 |
| 20260902150442 | 47 | 272 | 0.0 | 0.0 | 0.00 | 0.00 | 0.00 | 71 | 1015.8 |
| 20260902150233 | 47 | 272 | 0.0 | 0.0 | 0.00 | 0.00 | 0.00 | 71 | 1015.8 |
| 20260902150031 | 47 | 272 | 0.0 | 0.0 | 0.00 | 0.00 | 0.00 | 71 | 1015.8 |
| 20260902145818 | 47 | 273 | 0.0 | 0.0 | 0.00 | 0.00 | 0.00 | 70 | 1015.7 |
| 20260902145427 | 47 | 273 | 0.0 | 0.0 | 0.00 | 0.00 | 0.00 | 70 | 1015.6 |
| 20260902145221 | 47 | 272 | 0.0 | 0.0 | 0.00 | 0.00 | 0.00 | 70 | 1015.6 |
| 20260902144824 | 47 | 272 | 0.0 | 0.0 | 0.00 | 0.00 | 0.00 | 70 | 1015.6 |
| 20260902144617 | 47 | 273 | 0.0 | 0.0 | 0.00 | 0.00 | 0.00 | 70 | 1015.5 |
| 20260902144414 | 47 | 272 | 0.0 | 0.0 | 0.00 | 0.00 | 0.00 | 70 | 1015.5 |
| 20260902144021 | 47 | 272 | 0.0 | 0.0 | 0.00 | 0.00 | 0.00 | 70 | 1015.5 |
| 20260902143625 | 47 | 273 | 0.0 | 0.0 | 0.00 | 0.00 | 0.00 | 70 | 1015.6 |
| 20260902143422 | 47 | 272 | 0.0 | 0.0 | 0.00 | 0.00 | 0.00 | 70 | 1015.6 |
| 20260902143221 | 47 | 272 | 0.0 | 0.0 | 0.00 | 0.00 | 0.00 | 70 | 1015.5 |
| 20260902143013 | 47 | 272 | 0.0 | 0.0 | 0.00 | 0.00 | 0.00 | 70 | 1015.4 |
| 20260902142803 | 46 | 273 | 0.0 | 0.0 | 0.00 | 0.00 | 0.00 | 70 | 1015.4 |
| 20260902142405 | 46 | 272 | 0.0 | 0.0 | 0.00 | 0.00 | 0.00 | 70 | 1015.4 |
| 20260902142201 | 46 | 273 | 0.0 | 0.0 | 0.00 | 0.00 | 0.00 | 69 | 1015.4 |
| 20260902141951 | 46 | 272 | 0.0 | 0.0 | 0.00 | 0.00 | 0.00 | 69 | 1015.4 |
| 20260902141740 | 46 | 272 | 0.0 | 0.0 | 0.00 | 0.00 | 0.00 | 69 | 1015.3 |
| 20260902141535 | 46 | 272 | 0.0 | 0.0 | 0.00 | 0.00 | 0.00 | 69 | 1015.4 |
| 20260902141326 | 46 | 272 | 0.0 | 0.0 | 0.00 | 0.00 | 0.00 | 69 | 1015.4 |
| 20260902140930 | 46 | 272 | 0.0 | 0.0 | 0.00 | 0.00 | 0.00 | 69 | 1015.4 |
| 20260902140728 | 46 | 273 | 0.0 | 0.0 | 0.00 | 0.00 | 0.00 | 69 | 1015.4 |
| 20260902140519 | 46 | 273 | 0.0 | 0.0 | 0.00 | 0.00 | 0.00 | 69 | 1015.4 |
| 20260902140306 | 46 | 273 | 0.0 | 0.0 | 0.00 | 0.00 | 0.00 | 69 | 1015.3 |
| 20260902140056 | 46 | 273 | 0.0 | 0.0 | 0.00 | 0.00 | 0.00 | 69 | 1015.3 |
| 20260902135845 | 46 | 272 | 0.0 | 0.0 | 0.00 | 0.00 | 0.00 | 69 | 1015.3 |
| 20260902135639 | 46 | 272 | 0.0 | 0.0 | 0.00 | 0.00 | 0.00 | 69 | 1015.3 |
| 20260902135430 | 46 | 273 | 0.0 | 0.0 | 0.00 | 0.00 | 0.00 | 69 | 1015.3 |
| 20260902135228 | 46 | 273 | 0.0 | 0.0 | 0.00 | 0.00 | 0.00 | 69 | 1015.3 |
| 20260902135024 | 46 | 272 | 0.0 | 0.0 | 0.00 | 0.00 | 0.00 | 69 | 1015.2 |
| 20260902134822 | 46 | 273 | 0.0 | 0.0 | 0.00 | 0.00 | 0.00 | 69 | 1015.1 |
| 20260902134613 | 46 | 272 | 0.0 | 0.0 | 0.00 | 0.00 | 0.00 | 69 | 1015.0 |
| 20260902134405 | 46 | 272 | 0.0 | 0.0 | 0.00 | 0.00 | 0.00 | 68 | 1015.0 |
| 20260902134201 | 46 | 273 | 0.0 | 0.0 | 0.00 | 0.00 | 0.00 | 69 | 1015.0 |
| 20260902133957 | 46 | 273 | 0.0 | 0.0 | 0.00 | 0.00 | 0.00 | 68 | 1015.0 |
| 20260902133748 | 46 | 273 | 0.0 | 0.0 | 0.00 | 0.00 | 0.00 | 68 | 1015.0 |
| 20260902133538 | 46 | 272 | 0.0 | 0.0 | 0.00 | 0.00 | 0.00 | 68 | 1015.1 |
| 20260902133140 | 46 | 272 | 0.0 | 0.0 | 0.00 | 0.00 | 0.00 | 68 | 1014.9 |
| 20260902132930 | 46 | 273 | 0.0 | 0.0 | 0.00 | 0.00 | 0.00 | 68 | 1015.0 |
| 20260902132727 | 46 | 272 | 0.0 | 0.0 | 0.00 | 0.00 | 0.00 | 68 | 1014.9 |
| 20260902132522 | 46 | 273 | 0.0 | 0.0 | 0.00 | 0.00 | 0.00 | 68 | 1014.9 |
| 20260902132315 | 46 | 273 | 0.0 | 0.0 | 0.00 | 0.00 | 0.00 | 68 | 1014.8 |
| 20260902131632 | 46 | 273 | 0.0 | 0.0 | 0.00 | 0.00 | 0.00 | 68 | 1014.8 |
| 20260902131424 | 46 | 272 | 0.0 | 0.0 | 0.00 | 0.00 | 0.00 | 68 | 1014.8 |
| 20260902130847 | 46 | 273 | 0.0 | 0.0 | 0.00 | 0.00 | 0.00 | 68 | 1014.8 |
| 20260902130635 | 46 | 273 | 0.0 | 0.0 | 0.00 | 0.00 | 0.00 | 68 | 1014.8 |
| 20260902130429 | 47 | 273 | 0.0 | 0.0 | 0.00 | 0.00 | 0.00 | 68 | 1014.7 |
| 20260902130219 | 47 | 272 | 0.0 | 0.0 | 0.00 | 0.00 | 0.00 | 68 | 1014.7 |
| 20260902125830 | 47 | 273 | 0.0 | 0.0 | 0.00 | 0.00 | 0.00 | 68 | 1014.7 |
| 20260902125623 | 47 | 273 | 0.0 | 0.0 | 0.00 | 0.00 | 0.00 | 68 | 1014.7 |
| 20260902125421 | 47 | 273 | 0.0 | 0.0 | 0.00 | 0.00 | 0.00 | 68 | 1014.7 |
| 20260902125212 | 47 | 273 | 0.0 | 0.0 | 0.00 | 0.00 | 0.00 | 68 | 1014.7 |
| 20260902124819 | 47 | 272 | 0.0 | 0.0 | 0.00 | 0.00 | 0.00 | 68 | 1014.6 |
| 20260902124613 | 47 | 273 | 0.0 | 0.0 | 0.00 | 0.00 | 0.00 | 68 | 1014.7 |
| 20260902124402 | 47 | 272 | 0.0 | 0.0 | 0.00 | 0.00 | 0.00 | 68 | 1014.7 |
| 20260902124151 | 47 | 272 | 0.0 | 0.0 | 0.00 | 0.00 | 0.00 | 68 | 1014.7 |
| 20260902123940 | 47 | 273 | 0.0 | 0.0 | 0.00 | 0.00 | 0.00 | 68 | 1014.6 |
| 20260902123739 | 47 | 273 | 0.0 | 0.0 | 0.00 | 0.00 | 0.00 | 68 | 1014.7 |
| 20260902123532 | 47 | 273 | 0.0 | 0.0 | 0.00 | 0.00 | 0.00 | 68 | 1014.7 |
| 20260902123320 | 47 | 273 | 0.0 | 0.0 | 0.00 | 0.00 | 0.00 | 68 | 1014.7 |
| 20260902123110 | 47 | 273 | 0.0 | 0.0 | 0.00 | 0.00 | 0.00 | 68 | 1014.8 |
| 20260902122856 | 47 | 272 | 0.0 | 0.0 | 0.00 | 0.00 | 0.00 | 67 | 1014.8 |
| 20260902122644 | 47 | 272 | 0.0 | 0.0 | 0.00 | 0.00 | 0.00 | 67 | 1014.7 |
| 20260902122443 | 47 | 273 | 0.0 | 0.0 | 0.00 | 0.00 | 0.00 | 67 | 1014.8 |
| 20260902122237 | 47 | 273 | 0.0 | 0.0 | 0.00 | 0.00 | 0.00 | 67 | 1014.7 |
| 20260902122026 | 47 | 273 | 0.0 | 0.0 | 0.00 | 0.00 | 0.00 | 67 | 1014.7 |
| 20260902121628 | 47 | 272 | 0.0 | 0.0 | 0.00 | 0.00 | 0.00 | 67 | 1014.8 |
| 20260902121422 | 47 | 272 | 0.0 | 0.0 | 0.00 | 0.00 | 0.00 | 67 | 1014.8 |
| 20260902121218 | 47 | 273 | 0.0 | 0.0 | 0.00 | 0.00 | 0.00 | 67 | 1014.8 |
| 20260902121014 | 47 | 273 | 0.0 | 0.0 | 0.00 | 0.00 | 0.00 | 67 | 1014.8 |
| 20260902120804 | 47 | 272 | 0.0 | 0.0 | 0.00 | 0.00 | 0.00 | 67 | 1014.8 |
| 20260902120550 | 47 | 272 | 0.0 | 0.0 | 0.00 | 0.00 | 0.00 | 67 | 1014.8 |
| 20260902120341 | 47 | 272 | 0.0 | 0.0 | 0.00 | 0.00 | 0.00 | 67 | 1014.8 |
| 20260902120132 | 47 | 273 | 0.0 | 0.0 | 0.00 | 0.00 | 0.00 | 67 | 1014.8 |
| 20260902115739 | 47 | 273 | 0.0 | 0.0 | 0.00 | 0.00 | 0.00 | 67 | 1014.8 |
| 20260902115527 | 47 | 273 | 0.0 | 0.0 | 0.00 | 0.00 | 0.00 | 67 | 1014.8 |
| 20260902115139 | 47 | 273 | 0.0 | 0.0 | 0.00 | 0.00 | 0.00 | 66 | 1014.8 |
| 20260902114935 | 47 | 272 | 0.0 | 0.0 | 0.00 | 0.00 | 0.00 | 66 | 1014.8 |
| 20260902114723 | 47 | 273 | 0.0 | 0.0 | 0.00 | 0.00 | 0.00 | 66 | 1014.9 |
| 20260902114511 | 47 | 273 | 0.0 | 0.0 | 0.00 | 0.00 | 0.00 | 66 | 1014.9 |
| 20260902114301 | 47 | 272 | 0.0 | 0.0 | 0.00 | 0.00 | 0.00 | 66 | 1014.9 |
| 20260902114059 | 47 | 272 | 0.0 | 0.0 | 0.00 | 0.00 | 0.00 | 66 | 1015.0 |
| 20260902113852 | 47 | 273 | 0.0 | 0.0 | 0.00 | 0.00 | 0.00 | 66 | 1015.0 |
| 20260902113648 | 47 | 273 | 0.0 | 0.0 | 0.00 | 0.00 | 0.00 | 66 | 1015.0 |
| 20260902113445 | 47 | 272 | 0.0 | 0.0 | 0.00 | 0.00 | 0.00 | 66 | 1015.0 |
| 20260902113057 | 47 | 273 | 0.0 | 0.0 | 0.00 | 0.00 | 0.00 | 66 | 1014.9 |
| 20260902112851 | 47 | 272 | 0.0 | 0.0 | 0.00 | 0.00 | 0.00 | 66 | 1014.9 |
| 20260902112456 | 47 | 272 | 0.0 | 0.0 | 0.00 | 0.00 | 0.00 | 66 | 1014.8 |
| 20260902112244 | 47 | 273 | 0.0 | 0.0 | 0.00 | 0.00 | 0.00 | 66 | 1014.9 |
| 20260902112034 | 47 | 273 | 0.0 | 0.0 | 0.00 | 0.00 | 0.00 | 66 | 1014.8 |
| 20260902111825 | 47 | 273 | 0.0 | 0.0 | 0.00 | 0.00 | 0.00 | 66 | 1014.8 |
| 20260902111613 | 47 | 272 | 0.0 | 0.0 | 0.00 | 0.00 | 0.00 | 65 | 1014.8 |
| 20260902111408 | 47 | 272 | 0.0 | 0.0 | 0.00 | 0.00 | 0.00 | 65 | 1014.8 |
| 20260902111157 | 47 | 272 | 0.0 | 0.0 | 0.00 | 0.00 | 0.00 | 65 | 1014.8 |
| 20260902110945 | 47 | 273 | 0.0 | 0.0 | 0.00 | 0.00 | 0.00 | 65 | 1014.8 |
| 20260902110741 | 48 | 272 | 0.0 | 0.0 | 0.00 | 0.00 | 0.00 | 65 | 1014.8 |
| 20260902110530 | 48 | 272 | 0.0 | 0.0 | 0.00 | 0.00 | 0.00 | 65 | 1014.8 |
| 20260902110321 | 48 | 273 | 0.0 | 0.0 | 0.00 | 0.00 | 0.00 | 65 | 1014.8 |
| 20260902110111 | 48 | 273 | 0.0 | 0.0 | 0.00 | 0.00 | 0.00 | 65 | 1014.8 |
| 20260902105907 | 48 | 273 | 0.0 | 0.0 | 0.00 | 0.00 | 0.00 | 65 | 1014.7 |
| 20260902105704 | 48 | 272 | 0.0 | 0.0 | 0.00 | 0.00 | 0.00 | 65 | 1014.8 |
| 20260902105309 | 48 | 273 | 0.0 | 0.0 | 0.00 | 0.00 | 0.00 | 65 | 1014.7 |
| 20260902104920 | 48 | 273 | 0.0 | 0.0 | 0.00 | 0.00 | 0.00 | 65 | 1014.8 |
| 20260902104716 | 48 | 272 | 0.0 | 0.0 | 0.00 | 0.00 | 0.00 | 65 | 1014.7 |
| 20260902104503 | 48 | 273 | 0.0 | 0.0 | 0.00 | 0.00 | 0.00 | 64 | 1014.7 |
| 20260902104250 | 48 | 272 | 0.0 | 0.0 | 0.00 | 0.00 | 0.00 | 64 | 1014.7 |
| 20260902104038 | 48 | 273 | 0.0 | 0.0 | 0.00 | 0.00 | 0.00 | 64 | 1014.7 |
| 20260902103829 | 48 | 273 | 0.0 | 0.0 | 0.00 | 0.00 | 0.00 | 64 | 1014.7 |
| 20260902103617 | 48 | 272 | 0.0 | 0.0 | 0.00 | 0.00 | 0.00 | 64 | 1014.7 |
| 20260902103411 | 48 | 273 | 0.0 | 0.0 | 0.00 | 0.00 | 0.00 | 64 | 1014.7 |
| 20260902103206 | 48 | 272 | 0.0 | 0.0 | 0.00 | 0.00 | 0.00 | 64 | 1014.7 |
| 20260902103005 | 48 | 273 | 0.0 | 0.0 | 0.00 | 0.00 | 0.00 | 64 | 1014.6 |
| 20260902102753 | 48 | 273 | 0.0 | 0.0 | 0.00 | 0.00 | 0.00 | 64 | 1014.6 |
| 20260902102545 | 48 | 272 | 0.0 | 0.0 | 0.00 | 0.00 | 0.00 | 64 | 1014.7 |
| 20260902102335 | 48 | 273 | 0.0 | 0.0 | 0.00 | 0.00 | 0.00 | 64 | 1014.6 |
| 20260902102133 | 48 | 273 | 0.0 | 0.0 | 0.00 | 0.00 | 0.00 | 64 | 1014.6 |
| 20260902101739 | 48 | 273 | 0.0 | 0.0 | 0.00 | 0.00 | 0.00 | 63 | 1014.6 |
| 20260902101534 | 48 | 273 | 0.0 | 0.0 | 0.00 | 0.00 | 0.00 | 63 | 1014.5 |
| 20260902101137 | 48 | 272 | 0.0 | 0.0 | 0.00 | 0.00 | 0.00 | 63 | 1014.6 |
| 20260902100934 | 48 | 273 | 0.0 | 0.0 | 0.00 | 0.00 | 0.00 | 63 | 1014.6 |
| 20260902100722 | 48 | 273 | 0.0 | 0.0 | 0.00 | 0.00 | 0.00 | 63 | 1014.6 |
| 20260902100514 | 48 | 273 | 0.0 | 0.0 | 0.00 | 0.00 | 0.00 | 63 | 1014.6 |
| 20260902100304 | 48 | 272 | 0.0 | 0.0 | 0.00 | 0.00 | 0.00 | 63 | 1014.5 |
| 20260902100058 | 48 | 273 | 0.0 | 0.0 | 0.00 | 0.00 | 0.00 | 63 | 1014.5 |
| 20260902095849 | 48 | 273 | 0.0 | 0.0 | 0.00 | 0.00 | 0.00 | 63 | 1014.5 |
| 20260902095639 | 48 | 273 | 0.0 | 0.0 | 0.00 | 0.00 | 0.00 | 63 | 1014.5 |
| 20260902095250 | 48 | 273 | 0.0 | 0.0 | 0.00 | 0.00 | 0.00 | 63 | 1014.5 |
| 20260902095043 | 48 | 272 | 0.0 | 0.0 | 0.00 | 0.00 | 0.00 | 63 | 1014.5 |
| 20260902094835 | 48 | 273 | 0.0 | 0.0 | 0.00 | 0.00 | 0.00 | 63 | 1014.6 |
| 20260902094626 | 48 | 273 | 0.0 | 0.0 | 0.00 | 0.00 | 0.00 | 62 | 1014.5 |
| 20260902094417 | 48 | 273 | 0.0 | 0.0 | 0.00 | 0.00 | 0.00 | 62 | 1014.5 |
| 20260902094215 | 48 | 272 | 0.0 | 0.0 | 0.00 | 0.00 | 0.00 | 62 | 1014.5 |
| 20260902094003 | 48 | 273 | 0.0 | 0.0 | 0.00 | 0.00 | 0.00 | 62 | 1014.6 |
| 20260902093757 | 48 | 273 | 0.0 | 0.0 | 0.00 | 0.00 | 0.00 | 62 | 1014.5 |
| 20260902093547 | 48 | 272 | 0.0 | 0.0 | 0.00 | 0.00 | 0.00 | 62 | 1014.6 |
| 20260902093335 | 49 | 273 | 0.0 | 0.0 | 0.00 | 0.00 | 0.00 | 62 | 1014.6 |
| 20260902093124 | 49 | 273 | 0.0 | 0.0 | 0.00 | 0.00 | 0.00 | 62 | 1014.6 |
| 20260902092913 | 49 | 273 | 0.0 | 0.0 | 0.00 | 0.00 | 0.00 | 62 | 1014.6 |
| 20260902092710 | 49 | 273 | 0.0 | 0.0 | 0.00 | 0.00 | 0.00 | 61 | 1014.6 |
| 20260902092504 | 49 | 272 | 0.0 | 0.0 | 0.00 | 0.00 | 0.00 | 61 | 1014.6 |
| 20260902092300 | 49 | 272 | 0.0 | 0.0 | 0.00 | 0.00 | 0.00 | 61 | 1014.6 |
| 20260902092052 | 49 | 272 | 0.0 | 0.0 | 0.00 | 0.00 | 0.00 | 61 | 1014.7 |
| 20260902091841 | 49 | 273 | 0.0 | 0.0 | 0.00 | 0.00 | 0.00 | 61 | 1014.6 |
| 20260902091636 | 49 | 273 | 0.0 | 0.0 | 0.00 | 0.00 | 0.00 | 61 | 1014.6 |
| 20260902091429 | 49 | 273 | 0.0 | 0.0 | 0.00 | 0.00 | 0.00 | 61 | 1014.6 |
| 20260902091219 | 49 | 273 | 0.0 | 0.0 | 0.00 | 0.00 | 0.00 | 61 | 1014.7 |
| 20260902090822 | 49 | 273 | 0.0 | 0.0 | 0.00 | 0.00 | 0.00 | 61 | 1014.7 |
| 20260902090616 | 49 | 273 | 0.0 | 0.0 | 0.00 | 0.00 | 0.00 | 61 | 1014.6 |
| 20260902090403 | 49 | 273 | 0.0 | 0.0 | 0.00 | 0.00 | 0.00 | 61 | 1014.6 |
| 20260902090152 | 49 | 273 | 0.0 | 0.0 | 0.00 | 0.00 | 0.00 | 61 | 1014.6 |
| 20260902085946 | 49 | 273 | 0.0 | 0.0 | 0.00 | 0.00 | 0.00 | 61 | 1014.7 |
| 20260902085737 | 49 | 273 | 0.0 | 0.0 | 0.00 | 0.00 | 0.00 | 60 | 1014.6 |
| 20260902085524 | 49 | 272 | 0.0 | 0.0 | 0.00 | 0.00 | 0.00 | 60 | 1014.6 |
| 20260902085317 | 49 | 272 | 0.0 | 0.0 | 0.00 | 0.00 | 0.00 | 60 | 1014.6 |
| 20260902085107 | 49 | 272 | 0.0 | 0.0 | 0.00 | 0.00 | 0.00 | 60 | 1014.6 |
| 20260902084904 | 49 | 273 | 0.0 | 0.0 | 0.00 | 0.00 | 0.00 | 60 | 1014.6 |
| 20260902084657 | 49 | 272 | 0.0 | 0.0 | 0.00 | 0.00 | 0.00 | 60 | 1014.6 |
| 20260902084455 | 49 | 273 | 0.0 | 0.0 | 0.00 | 0.00 | 0.00 | 60 | 1014.6 |
| 20260902084251 | 49 | 272 | 0.0 | 0.0 | 0.00 | 0.00 | 0.00 | 60 | 1014.7 |
| 20260902084043 | 49 | 273 | 0.0 | 0.0 | 0.00 | 0.00 | 0.00 | 60 | 1014.6 |
| 20260902083831 | 49 | 272 | 0.0 | 0.0 | 0.00 | 0.00 | 0.00 | 60 | 1014.6 |
| 20260902083629 | 49 | 272 | 0.0 | 0.0 | 0.00 | 0.00 | 0.00 | 60 | 1014.6 |
| 20260902083417 | 49 | 273 | 0.0 | 0.0 | 0.00 | 0.00 | 0.00 | 60 | 1014.6 |
| 20260902083211 | 49 | 273 | 0.0 | 0.0 | 0.00 | 0.00 | 0.00 | 60 | 1014.7 |
| 20260902082958 | 49 | 273 | 0.0 | 0.0 | 0.00 | 0.00 | 0.00 | 60 | 1014.6 |
| 20260902082751 | 49 | 273 | 0.0 | 0.0 | 0.00 | 0.00 | 0.00 | 60 | 1014.6 |
| 20260902082548 | 49 | 273 | 0.0 | 0.0 | 0.00 | 0.00 | 0.00 | 60 | 1014.6 |
| 20260902082336 | 49 | 273 | 0.0 | 0.0 | 0.00 | 0.00 | 0.00 | 60 | 1014.6 |
| 20260902082130 | 49 | 273 | 0.0 | 0.0 | 0.00 | 0.00 | 0.00 | 60 | 1014.6 |
| 20260902081739 | 49 | 272 | 0.0 | 0.0 | 0.00 | 0.00 | 0.00 | 61 | 1014.5 |
| 20260902081534 | 49 | 273 | 0.0 | 0.0 | 0.00 | 0.00 | 0.00 | 61 | 1014.5 |
| 20260902081138 | 49 | 273 | 0.0 | 0.0 | 0.00 | 0.00 | 0.00 | 61 | 1014.5 |
| 20260902080928 | 49 | 272 | 0.0 | 0.0 | 0.00 | 0.00 | 0.00 | 61 | 1014.5 |
| 20260902080716 | 49 | 272 | 0.0 | 0.0 | 0.00 | 0.00 | 0.00 | 61 | 1014.4 |
| 20260902080512 | 49 | 272 | 0.0 | 0.0 | 0.00 | 0.00 | 0.00 | 61 | 1014.4 |
| 20260902080305 | 49 | 272 | 0.0 | 0.0 | 0.00 | 0.00 | 0.00 | 61 | 1014.4 |
| 20260902080056 | 50 | 272 | 0.0 | 0.0 | 0.00 | 0.00 | 0.00 | 61 | 1014.4 |
| 20260902075845 | 50 | 273 | 0.0 | 0.0 | 0.00 | 0.00 | 0.00 | 61 | 1014.4 |
| 20260902075632 | 50 | 273 | 0.0 | 0.0 | 0.00 | 0.00 | 0.00 | 62 | 1014.4 |
| 20260902075244 | 50 | 272 | 0.0 | 0.0 | 0.00 | 0.00 | 0.00 | 62 | 1014.4 |
| 20260902075032 | 50 | 273 | 0.0 | 0.0 | 0.00 | 0.00 | 0.00 | 62 | 1014.3 |
| 20260902074825 | 50 | 273 | 0.0 | 0.0 | 0.00 | 0.00 | 0.00 | 62 | 1014.4 |
| 20260902074616 | 50 | 272 | 0.0 | 0.0 | 0.00 | 0.00 | 0.00 | 62 | 1014.2 |
| 20260902074410 | 50 | 272 | 0.0 | 0.0 | 0.00 | 0.00 | 0.00 | 62 | 1014.3 |
| 20260902074205 | 50 | 272 | 0.0 | 0.0 | 0.00 | 0.00 | 0.00 | 62 | 1014.2 |
| 20260902073955 | 50 | 273 | 0.0 | 0.0 | 0.00 | 0.00 | 0.00 | 62 | 1014.2 |
| 20260902073754 | 50 | 272 | 0.0 | 0.0 | 0.00 | 0.00 | 0.00 | 62 | 1014.1 |
| 20260902073553 | 50 | 273 | 0.0 | 0.0 | 0.00 | 0.00 | 0.00 | 62 | 1014.1 |
| 20260902073345 | 50 | 272 | 0.0 | 0.0 | 0.00 | 0.00 | 0.00 | 62 | 1014.0 |
| 20260902073133 | 50 | 273 | 0.0 | 0.0 | 0.00 | 0.00 | 0.00 | 62 | 1014.0 |
| 20260902072928 | 50 | 272 | 0.0 | 0.0 | 0.00 | 0.00 | 0.00 | 62 | 1013.9 |
| 20260902072535 | 50 | 273 | 0.0 | 0.0 | 0.00 | 0.00 | 0.00 | 62 | 1013.8 |
| 20260902072327 | 50 | 273 | 0.0 | 0.0 | 0.00 | 0.00 | 0.00 | 62 | 1013.8 |
| 20260902071932 | 50 | 273 | 0.0 | 0.0 | 0.00 | 0.00 | 0.00 | 63 | 1013.8 |
| 20260902071722 | 50 | 273 | 0.0 | 0.0 | 0.00 | 0.00 | 0.00 | 63 | 1013.8 |
| 20260902071521 | 50 | 273 | 0.0 | 0.0 | 0.00 | 0.00 | 0.00 | 63 | 1013.8 |
| 20260902071319 | 50 | 272 | 0.0 | 0.0 | 0.00 | 0.00 | 0.00 | 63 | 1013.8 |
| 20260902071117 | 50 | 273 | 0.0 | 0.0 | 0.00 | 0.00 | 0.00 | 63 | 1013.8 |
| 20260902070909 | 50 | 272 | 0.0 | 0.0 | 0.00 | 0.00 | 0.00 | 63 | 1013.9 |
| 20260902070659 | 51 | 273 | 0.0 | 0.0 | 0.00 | 0.00 | 0.00 | 63 | 1013.9 |
| 20260902070453 | 51 | 273 | 0.0 | 0.0 | 0.00 | 0.00 | 0.00 | 63 | 1013.9 |
| 20260902070242 | 51 | 273 | 0.0 | 0.0 | 0.00 | 0.00 | 0.00 | 63 | 1013.9 |
| 20260902065848 | 51 | 272 | 0.0 | 0.0 | 0.00 | 0.00 | 0.00 | 63 | 1014.0 |
| 20260902065636 | 51 | 273 | 0.0 | 0.0 | 0.00 | 0.00 | 0.00 | 63 | 1013.9 |
| 20260902065433 | 51 | 272 | 0.0 | 0.0 | 0.00 | 0.00 | 0.00 | 63 | 1013.9 |
| 20260902065229 | 51 | 273 | 0.0 | 0.0 | 0.00 | 0.00 | 0.00 | 63 | 1013.9 |
| 20260902065016 | 51 | 272 | 0.0 | 0.0 | 0.00 | 0.00 | 0.00 | 62 | 1013.8 |
| 20260902064803 | 51 | 272 | 0.0 | 0.0 | 0.00 | 0.00 | 0.00 | 62 | 1013.7 |
| 20260902064412 | 51 | 273 | 0.0 | 0.0 | 0.00 | 0.00 | 0.00 | 62 | 1013.7 |
| 20260902064209 | 51 | 273 | 0.0 | 0.0 | 0.00 | 0.00 | 0.00 | 63 | 1013.7 |
| 20260902064002 | 51 | 272 | 0.0 | 0.0 | 0.00 | 0.00 | 0.00 | 62 | 1013.6 |
| 20260902063749 | 51 | 272 | 0.0 | 0.0 | 0.00 | 0.00 | 0.00 | 62 | 1013.7 |
| 20260902063547 | 51 | 272 | 0.0 | 0.0 | 0.00 | 0.00 | 0.00 | 62 | 1013.7 |
| 20260902063345 | 52 | 273 | 0.0 | 0.0 | 0.00 | 0.00 | 0.00 | 62 | 1013.7 |
| 20260902063133 | 52 | 273 | 0.0 | 0.0 | 0.00 | 0.00 | 0.00 | 62 | 1013.7 |
| 20260902062745 | 52 | 272 | 0.0 | 0.0 | 0.00 | 0.00 | 0.00 | 62 | 1013.7 |
| 20260902062213 | 52 | 273 | 0.0 | 0.0 | 0.00 | 0.00 | 0.00 | 62 | 1013.8 |
| 20260902062011 | 52 | 273 | 0.0 | 0.0 | 0.00 | 0.00 | 0.00 | 62 | 1013.8 |
| 20260902061802 | 52 | 273 | 0.0 | 0.0 | 0.00 | 0.00 | 0.00 | 62 | 1013.8 |
| 20260902061550 | 52 | 272 | 0.0 | 0.0 | 0.00 | 0.00 | 0.00 | 62 | 1013.8 |
| 20260902061341 | 52 | 273 | 0.0 | 0.0 | 0.00 | 0.00 | 0.00 | 62 | 1013.7 |
| 20260902061128 | 52 | 272 | 0.0 | 0.0 | 0.00 | 0.00 | 0.00 | 63 | 1013.7 |
| 20260902060920 | 52 | 272 | 0.0 | 0.0 | 0.00 | 0.00 | 0.00 | 63 | 1013.7 |
| 20260902060710 | 52 | 273 | 0.0 | 0.0 | 0.00 | 0.00 | 0.00 | 62 | 1013.7 |
| 20260902060503 | 53 | 272 | 0.0 | 0.0 | 0.00 | 0.00 | 0.00 | 62 | 1013.7 |
| 20260902060116 | 53 | 272 | 0.0 | 0.0 | 0.00 | 0.00 | 0.00 | 62 | 1013.7 |
| 20260902055915 | 53 | 273 | 0.0 | 0.0 | 0.00 | 0.00 | 0.00 | 62 | 1013.6 |
| 20260902055711 | 53 | 273 | 0.0 | 0.0 | 0.00 | 0.00 | 0.00 | 62 | 1013.8 |
| 20260902055501 | 53 | 273 | 0.0 | 0.0 | 0.00 | 0.00 | 0.00 | 62 | 1013.8 |
| 20260902055256 | 53 | 273 | 0.0 | 0.0 | 0.00 | 0.00 | 0.00 | 62 | 1013.7 |
| 20260902054902 | 53 | 272 | 0.0 | 0.0 | 0.00 | 0.00 | 0.00 | 62 | 1013.8 |
| 20260902054700 | 53 | 272 | 0.0 | 0.0 | 0.00 | 0.00 | 0.00 | 62 | 1013.7 |
| 20260902054309 | 53 | 272 | 0.0 | 0.0 | 0.00 | 0.00 | 0.00 | 61 | 1013.8 |
| 20260902054059 | 53 | 272 | 0.0 | 0.0 | 0.00 | 0.00 | 0.00 | 61 | 1013.8 |
| 20260902053854 | 53 | 273 | 0.0 | 0.0 | 0.00 | 0.00 | 0.00 | 61 | 1013.8 |
| 20260902053643 | 54 | 272 | 0.0 | 0.0 | 0.00 | 0.00 | 0.00 | 61 | 1013.8 |
| 20260902053439 | 54 | 272 | 0.0 | 0.0 | 0.00 | 0.00 | 0.00 | 61 | 1013.9 |
| 20260902053229 | 54 | 272 | 0.0 | 0.0 | 0.00 | 0.00 | 0.00 | 61 | 1013.9 |
| 20260902053025 | 54 | 272 | 0.0 | 0.0 | 0.00 | 0.00 | 0.00 | 61 | 1013.9 |
| 20260902052816 | 54 | 272 | 0.0 | 0.0 | 0.00 | 0.00 | 0.00 | 61 | 1013.8 |
| 20260902052607 | 54 | 272 | 0.0 | 0.0 | 0.00 | 0.00 | 0.00 | 60 | 1013.9 |
| 20260902052403 | 54 | 273 | 0.0 | 0.0 | 0.00 | 0.00 | 0.00 | 60 | 1013.9 |
| 20260902052152 | 54 | 272 | 0.0 | 0.0 | 0.00 | 0.00 | 0.00 | 60 | 1013.9 |
| 20260902051944 | 54 | 272 | 0.0 | 0.0 | 0.00 | 0.00 | 0.00 | 60 | 1014.0 |
| 20260902051732 | 54 | 272 | 0.0 | 0.0 | 0.00 | 0.00 | 0.00 | 60 | 1013.9 |
| 20260902051522 | 54 | 272 | 0.0 | 0.0 | 0.00 | 0.00 | 0.00 | 60 | 1014.0 |
| 20260902051318 | 55 | 272 | 0.0 | 0.0 | 0.00 | 0.00 | 0.00 | 60 | 1013.9 |
| 20260902051115 | 55 | 272 | 0.0 | 0.0 | 0.00 | 0.00 | 0.00 | 59 | 1013.9 |
| 20260902050903 | 55 | 273 | 0.0 | 0.0 | 0.00 | 0.00 | 0.00 | 59 | 1013.8 |
| 20260902050657 | 55 | 272 | 0.0 | 0.0 | 0.00 | 0.00 | 0.00 | 59 | 1013.8 |
| 20260902050311 | 55 | 273 | 0.0 | 0.0 | 0.00 | 0.00 | 0.00 | 59 | 1013.8 |
| 20260902050108 | 55 | 272 | 0.0 | 0.0 | 0.00 | 0.00 | 0.00 | 59 | 1013.8 |
| 20260902045857 | 55 | 272 | 0.0 | 0.0 | 0.00 | 0.00 | 0.00 | 58 | 1013.7 |
| 20260902045500 | 56 | 272 | 0.0 | 0.0 | 0.00 | 0.00 | 0.00 | 58 | 1013.8 |
| 20260902045254 | 56 | 272 | 0.0 | 0.0 | 0.00 | 0.00 | 0.00 | 58 | 1013.8 |
| 20260902045045 | 56 | 273 | 0.0 | 0.0 | 0.00 | 0.00 | 0.00 | 58 | 1013.7 |
| 20260902044658 | 56 | 272 | 0.0 | 0.0 | 0.00 | 0.00 | 0.00 | 58 | 1013.7 |
| 20260902044448 | 56 | 273 | 0.0 | 0.0 | 0.00 | 0.00 | 0.00 | 58 | 1013.7 |
| 20260902044244 | 56 | 272 | 0.0 | 0.0 | 0.00 | 0.00 | 0.00 | 57 | 1013.6 |
| 20260902044041 | 56 | 272 | 0.0 | 0.0 | 0.00 | 0.00 | 0.00 | 57 | 1013.5 |
| 20260902043830 | 56 | 272 | 0.0 | 0.0 | 0.00 | 0.00 | 0.00 | 57 | 1013.5 |
| 20260902043620 | 56 | 272 | 0.0 | 0.0 | 0.00 | 0.00 | 0.00 | 57 | 1013.5 |
| 20260902043413 | 57 | 272 | 0.0 | 0.0 | 0.00 | 0.00 | 0.00 | 56 | 1013.4 |
| 20260902043205 | 57 | 273 | 0.0 | 0.0 | 0.00 | 0.00 | 0.00 | 56 | 1013.4 |
| 20260902043002 | 57 | 272 | 0.0 | 0.0 | 0.00 | 0.00 | 0.00 | 56 | 1013.4 |
| 20260902042758 | 57 | 272 | 0.0 | 0.0 | 0.00 | 0.00 | 0.00 | 56 | 1013.4 |
| 20260902042552 | 57 | 272 | 0.0 | 0.0 | 0.00 | 0.00 | 0.00 | 56 | 1013.4 |
| 20260902042156 | 57 | 272 | 0.0 | 0.0 | 0.00 | 0.00 | 0.00 | 55 | 1013.2 |
| 20260902041952 | 57 | 272 | 0.0 | 0.0 | 0.00 | 0.00 | 0.00 | 55 | 1013.2 |
| 20260902041742 | 58 | 273 | 0.0 | 0.0 | 0.00 | 0.00 | 0.00 | 55 | 1013.2 |
| 20260902041537 | 58 | 272 | 0.0 | 0.0 | 0.00 | 0.00 | 0.00 | 55 | 1013.1 |
| 20260902041005 | 58 | 272 | 0.0 | 0.0 | 0.00 | 0.00 | 0.00 | 54 | 1013.1 |
| 20260902040755 | 58 | 273 | 0.0 | 0.0 | 0.00 | 0.00 | 0.00 | 54 | 1013.1 |
| 20260902040548 | 58 | 272 | 0.0 | 0.0 | 0.00 | 0.00 | 0.00 | 54 | 1013.0 |
| 20260902040343 | 58 | 273 | 0.0 | 0.0 | 0.00 | 0.00 | 0.00 | 54 | 1013.0 |
| 20260902040137 | 59 | 272 | 0.0 | 0.0 | 0.00 | 0.00 | 0.00 | 53 | 1013.0 |
| 20260902035933 | 59 | 272 | 0.0 | 0.0 | 0.00 | 0.00 | 0.00 | 53 | 1013.0 |
| 20260902035722 | 59 | 272 | 0.0 | 0.0 | 0.00 | 0.00 | 0.00 | 53 | 1013.0 |
| 20260902035510 | 59 | 272 | 0.0 | 0.0 | 0.00 | 0.00 | 0.00 | 53 | 1013.0 |
| 20260902035308 | 59 | 272 | 0.0 | 0.0 | 0.00 | 0.00 | 0.00 | 53 | 1013.0 |
| 20260902035058 | 59 | 272 | 0.0 | 0.0 | 0.00 | 0.00 | 0.00 | 53 | 1012.9 |
| 20260902034849 | 60 | 272 | 0.0 | 0.0 | 0.00 | 0.00 | 0.00 | 52 | 1012.8 |
| 20260902034645 | 60 | 272 | 0.0 | 0.0 | 0.00 | 0.00 | 0.00 | 52 | 1012.8 |
| 20260902034251 | 60 | 272 | 0.0 | 0.0 | 0.00 | 0.00 | 0.00 | 52 | 1012.8 |
| 20260902033716 | 61 | 272 | 0.0 | 0.0 | 0.00 | 0.00 | 0.00 | 51 | 1012.7 |
| 20260902033321 | 61 | 272 | 0.0 | 0.0 | 0.00 | 0.00 | 0.00 | 51 | 1012.7 |
| 20260902033110 | 61 | 272 | 0.0 | 0.0 | 0.00 | 0.00 | 0.00 | 50 | 1012.6 |
| 20260902032722 | 61 | 272 | 0.0 | 0.0 | 0.00 | 0.00 | 0.00 | 50 | 1012.7 |
| 20260902032518 | 62 | 272 | 0.0 | 0.0 | 0.00 | 0.00 | 0.00 | 50 | 1012.7 |
| 20260902032307 | 62 | 272 | 0.0 | 0.0 | 0.00 | 0.00 | 0.00 | 50 | 1012.7 |
| 20260902032059 | 62 | 272 | 0.0 | 0.0 | 0.00 | 0.00 | 0.00 | 49 | 1012.7 |
| 20260902031854 | 62 | 272 | 0.0 | 0.0 | 0.00 | 0.00 | 0.00 | 49 | 1012.7 |
| 20260902031644 | 63 | 272 | 0.0 | 0.0 | 0.00 | 0.00 | 0.00 | 49 | 1012.7 |
| 20260902031247 | 63 | 272 | 0.0 | 0.0 | 0.00 | 0.00 | 0.00 | 49 | 1012.6 |
| 20260902031038 | 63 | 272 | 0.0 | 0.0 | 0.00 | 0.00 | 0.00 | 48 | 1012.6 |
| 20260902030831 | 64 | 272 | 0.0 | 0.0 | 0.00 | 0.00 | 0.00 | 48 | 1012.7 |
| 20260902030627 | 64 | 272 | 0.0 | 0.0 | 0.00 | 0.00 | 0.00 | 48 | 1012.6 |
| 20260902030421 | 64 | 272 | 0.0 | 0.0 | 0.00 | 0.00 | 0.00 | 47 | 1012.7 |
| 20260902030216 | 64 | 272 | 0.0 | 0.0 | 0.00 | 0.00 | 0.00 | 47 | 1012.7 |
| 20260902030007 | 64 | 272 | 0.0 | 0.0 | 0.00 | 0.00 | 0.00 | 47 | 1012.7 |
| 20260902025806 | 65 | 272 | 0.0 | 0.0 | 0.00 | 0.00 | 0.00 | 47 | 1012.6 |
| 20260902025556 | 65 | 272 | 0.0 | 0.0 | 0.00 | 0.00 | 0.00 | 46 | 1012.6 |
| 20260902025351 | 65 | 272 | 0.0 | 0.0 | 0.00 | 0.00 | 0.00 | 46 | 1012.6 |
| 20260902025146 | 65 | 272 | 0.0 | 0.0 | 0.00 | 0.00 | 0.00 | 46 | 1012.5 |
| 20260902024934 | 65 | 272 | 0.0 | 0.0 | 0.00 | 0.00 | 0.00 | 46 | 1012.5 |
| 20260902024726 | 66 | 272 | 0.0 | 0.0 | 0.00 | 0.00 | 0.00 | 46 | 1012.5 |
| 20260902024337 | 66 | 272 | 0.0 | 0.0 | 0.00 | 0.00 | 0.00 | 46 | 1012.4 |
| 20260902023946 | 66 | 272 | 0.0 | 0.0 | 0.00 | 0.00 | 0.00 | 46 | 1012.3 |
| 20260902023739 | 66 | 272 | 0.0 | 0.0 | 0.00 | 0.00 | 0.00 | 45 | 1012.2 |
| 20260902023531 | 66 | 272 | 0.0 | 0.0 | 0.00 | 0.00 | 0.00 | 45 | 1012.2 |
| 20260902023317 | 66 | 272 | 0.0 | 0.0 | 0.00 | 0.00 | 0.00 | 45 | 1012.2 |
| 20260902023115 | 67 | 272 | 0.0 | 0.0 | 0.00 | 0.00 | 0.00 | 45 | 1012.2 |
| 20260902022901 | 67 | 272 | 0.0 | 0.0 | 0.00 | 0.00 | 0.00 | 45 | 1012.2 |
| 20260902022656 | 67 | 272 | 0.0 | 0.0 | 0.00 | 0.00 | 0.00 | 45 | 1012.2 |
| 20260902022452 | 67 | 272 | 0.0 | 3.0 | 0.00 | 0.00 | 0.00 | 45 | 1012.2 |
| 20260902022242 | 67 | 272 | 0.0 | 0.0 | 0.00 | 0.00 | 0.00 | 45 | 1012.2 |
| 20260902022040 | 67 | 272 | 0.0 | 0.0 | 0.00 | 0.00 | 0.00 | 45 | 1012.2 |
| 20260902021832 | 67 | 272 | 0.0 | 0.0 | 0.00 | 0.00 | 0.00 | 45 | 1012.2 |
| 20260902021623 | 67 | 272 | 0.0 | 0.0 | 0.00 | 0.00 | 0.00 | 44 | 1012.2 |
| 20260902021412 | 68 | 272 | 0.0 | 0.0 | 0.00 | 0.00 | 0.00 | 44 | 1012.2 |
| 20260902021020 | 68 | 272 | 0.0 | 0.0 | 0.00 | 0.00 | 0.00 | 44 | 1012.0 |
| 20260902020814 | 68 | 272 | 0.0 | 0.0 | 0.00 | 0.00 | 0.00 | 43 | 1012.0 |
| 20260902020424 | 68 | 272 | 0.0 | 2.0 | 0.00 | 0.00 | 0.00 | 43 | 1012.0 |
| 20260902020214 | 68 | 272 | 0.0 | 0.0 | 0.00 | 0.00 | 0.00 | 43 | 1012.0 |
| 20260902020012 | 68 | 272 | 0.0 | 0.0 | 0.00 | 0.00 | 0.00 | 44 | 1012.0 |
| 20260902015615 | 69 | 272 | 0.0 | 2.0 | 0.00 | 0.00 | 0.00 | 43 | 1011.9 |
| 20260902015401 | 69 | 272 | 0.0 | 0.0 | 0.00 | 0.00 | 0.00 | 42 | 1011.9 |
| 20260902015007 | 69 | 272 | 0.0 | 3.0 | 0.00 | 0.00 | 0.00 | 42 | 1011.9 |
| 20260902014757 | 69 | 272 | 0.0 | 3.0 | 0.00 | 0.00 | 0.00 | 42 | 1011.9 |
| 20260902014551 | 70 | 255 | 0.0 | 0.0 | 0.00 | 0.00 | 0.00 | 41 | 1012.0 |
| 20260902014342 | 70 | 255 | 0.0 | 0.0 | 0.00 | 0.00 | 0.00 | 41 | 1012.0 |
| 20260902014138 | 70 | 255 | 0.0 | 2.0 | 0.00 | 0.00 | 0.00 | 39 | 1011.9 |
| 20260902013932 | 70 | 255 | 0.0 | 0.0 | 0.00 | 0.00 | 0.00 | 39 | 1011.9 |
| 20260902013720 | 70 | 255 | 0.0 | 0.0 | 0.00 | 0.00 | 0.00 | 39 | 1011.8 |
| 20260902013514 | 70 | 255 | 0.0 | 0.0 | 0.00 | 0.00 | 0.00 | 39 | 1011.7 |
| 20260902013307 | 71 | 255 | 0.0 | 0.0 | 0.00 | 0.00 | 0.00 | 39 | 1011.7 |
| 20260902012911 | 71 | 255 | 0.0 | 0.0 | 0.00 | 0.00 | 0.00 | 38 | 1011.7 |
| 20260902012706 | 71 | 255 | 0.0 | 1.0 | 0.00 | 0.00 | 0.00 | 38 | 1011.7 |
| 20260902012502 | 71 | 255 | 0.0 | 1.0 | 0.00 | 0.00 | 0.00 | 37 | 1011.6 |
| 20260902012301 | 71 | 255 | 0.0 | 1.0 | 0.00 | 0.00 | 0.00 | 37 | 1011.6 |
| 20260902012049 | 71 | 255 | 0.0 | 1.0 | 0.00 | 0.00 | 0.00 | 37 | 1011.7 |
| 20260902011517 | 72 | 266 | 0.0 | 3.0 | 0.00 | 0.00 | 0.00 | 36 | 1011.7 |
| 20260902011316 | 72 | 269 | 0.0 | 1.0 | 0.00 | 0.00 | 0.00 | 36 | 1011.6 |
| 20260902011102 | 72 | 269 | 0.0 | 4.0 | 0.00 | 0.00 | 0.00 | 35 | 1011.6 |
| 20260902010706 | 72 | 268 | 0.0 | 4.0 | 0.00 | 0.00 | 0.00 | 35 | 1011.7 |
| 20260902010503 | 72 | 219 | 0.0 | 2.0 | 0.00 | 0.00 | 0.00 | 36 | 1011.7 |
| 20260902010254 | 72 | 219 | 0.0 | 2.0 | 0.00 | 0.00 | 0.00 | 36 | 1011.6 |
| 20260902010042 | 72 | 219 | 0.0 | 1.0 | 0.00 | 0.00 | 0.00 | 35 | 1011.6 |
| 20260902005834 | 73 | 219 | 0.0 | 1.0 | 0.00 | 0.00 | 0.00 | 35 | 1011.6 |
| 20260902005624 | 73 | 219 | 0.0 | 1.0 | 0.00 | 0.00 | 0.00 | 35 | 1011.6 |
| 20260902005419 | 73 | 219 | 0.0 | 0.0 | 0.00 | 0.00 | 0.00 | 35 | 1011.6 |
| 20260902005217 | 73 | 219 | 0.0 | 5.0 | 0.00 | 0.00 | 0.00 | 35 | 1011.6 |
| 20260902005006 | 73 | 219 | 0.0 | 5.0 | 0.00 | 0.00 | 0.00 | 35 | 1011.6 |
| 20260902004803 | 73 | 220 | 1.0 | 5.0 | 0.00 | 0.00 | 0.00 | 35 | 1011.5 |
| 20260902004550 | 73 | 220 | 1.0 | 5.0 | 0.00 | 0.00 | 0.00 | 34 | 1011.5 |
| 20260902004338 | 73 | 220 | 0.0 | 5.0 | 0.00 | 0.00 | 0.00 | 34 | 1011.6 |
| 20260902004131 | 73 | 221 | 0.0 | 4.0 | 0.00 | 0.00 | 0.00 | 34 | 1011.6 |
| 20260902003919 | 74 | 217 | 0.0 | 4.0 | 0.00 | 0.00 | 0.00 | 34 | 1011.6 |
| 20260902003718 | 74 | 218 | 0.0 | 4.0 | 0.00 | 0.00 | 0.00 | 35 | 1011.6 |
| 20260902003515 | 74 | 219 | 0.0 | 6.0 | 0.00 | 0.00 | 0.00 | 35 | 1011.5 |
| 20260902003307 | 74 | 219 | 0.0 | 6.0 | 0.00 | 0.00 | 0.00 | 34 | 1011.6 |
| 20260902003054 | 74 | 219 | 1.0 | 6.0 | 0.00 | 0.00 | 0.00 | 34 | 1011.6 |
| 20260902002842 | 74 | 238 | 1.0 | 6.0 | 0.00 | 0.00 | 0.00 | 34 | 1011.5 |
| 20260902002637 | 74 | 238 | 1.0 | 6.0 | 0.00 | 0.00 | 0.00 | 34 | 1011.4 |
| 20260902002250 | 74 | 239 | 1.0 | 6.0 | 0.00 | 0.00 | 0.00 | 33 | 1011.4 |
| 20260902002040 | 74 | 219 | 1.0 | 6.0 | 0.00 | 0.00 | 0.00 | 31 | 1011.4 |
| 20260902001837 | 74 | 219 | 1.0 | 6.0 | 0.00 | 0.00 | 0.00 | 32 | 1011.5 |
| 20260902001635 | 75 | 213 | 0.0 | 5.0 | 0.00 | 0.00 | 0.00 | 32 | 1011.5 |
| 20260902001425 | 75 | 215 | 0.0 | 4.0 | 0.00 | 0.00 | 0.00 | 33 | 1011.4 |
| 20260902001218 | 75 | 215 | 0.0 | 4.0 | 0.00 | 0.00 | 0.00 | 33 | 1011.5 |
| 20260902001008 | 76 | 215 | 0.0 | 4.0 | 0.00 | 0.00 | 0.00 | 31 | 1011.4 |
| 20260902000756 | 76 | 215 | 0.0 | 5.0 | 0.00 | 0.00 | 0.00 | 31 | 1011.5 |
| 20260902000551 | 76 | 215 | 0.0 | 5.0 | 0.00 | 0.00 | 0.00 | 32 | 1011.5 |
| 20260902000341 | 76 | 215 | 0.0 | 5.0 | 0.00 | 0.00 | 0.00 | 32 | 1011.5 |
| 20260902000130 | 76 | 215 | 0.0 | 5.0 | 0.00 | 0.00 | 0.00 | 34 | 1011.5 |
| 20260901235917 | 76 | 215 | 1.0 | 5.0 | 0.00 | 0.00 | 0.00 | 32 | 1011.4 |
| 20260901235715 | 76 | 214 | 1.0 | 5.0 | 0.00 | 0.00 | 0.00 | 32 | 1011.4 |
| 20260901235510 | 76 | 214 | 1.0 | 5.0 | 0.00 | 0.00 | 0.00 | 32 | 1011.4 |
| 20260901235307 | 76 | 215 | 1.0 | 5.0 | 0.00 | 0.00 | 0.00 | 33 | 1011.4 |
| 20260901235056 | 76 | 215 | 1.0 | 5.0 | 0.00 | 0.00 | 0.00 | 33 | 1011.4 |
| 20260901234851 | 76 | 234 | 1.0 | 5.0 | 0.00 | 0.00 | 0.00 | 34 | 1011.4 |
| 20260901234643 | 76 | 237 | 0.0 | 3.0 | 0.00 | 0.00 | 0.00 | 33 | 1011.4 |
| 20260901234434 | 76 | 229 | 0.0 | 3.0 | 0.00 | 0.00 | 0.00 | 34 | 1011.4 |
| 20260901234221 | 76 | 229 | 0.0 | 3.0 | 0.00 | 0.00 | 0.00 | 33 | 1011.5 |
| 20260901234015 | 76 | 182 | 0.0 | 3.0 | 0.00 | 0.00 | 0.00 | 33 | 1011.6 |
| 20260901233813 | 75 | 211 | 0.0 | 2.0 | 0.00 | 0.00 | 0.00 | 34 | 1011.6 |
| 20260901233602 | 76 | 211 | 0.0 | 0.0 | 0.00 | 0.00 | 0.00 | 36 | 1011.6 |
| 20260901233357 | 76 | 211 | 0.0 | 2.0 | 0.00 | 0.00 | 0.00 | 35 | 1011.6 |
| 20260901233154 | 76 | 211 | 1.0 | 5.0 | 0.00 | 0.00 | 0.00 | 32 | 1011.7 |
| 20260901232949 | 76 | 211 | 1.0 | 5.0 | 0.00 | 0.00 | 0.00 | 33 | 1011.7 |
| 20260901232745 | 76 | 234 | 1.0 | 4.0 | 0.00 | 0.00 | 0.00 | 33 | 1011.7 |
| 20260901232542 | 76 | 234 | 1.0 | 7.0 | 0.00 | 0.00 | 0.00 | 33 | 1011.7 |
| 20260901232340 | 75 | 238 | 1.0 | 7.0 | 0.00 | 0.00 | 0.00 | 33 | 1011.7 |
| 20260901231950 | 75 | 196 | 1.0 | 7.0 | 0.00 | 0.00 | 0.00 | 33 | 1011.8 |
| 20260901231557 | 75 | 213 | 1.0 | 7.0 | 0.00 | 0.00 | 0.00 | 33 | 1011.7 |
| 20260901231349 | 75 | 212 | 1.0 | 7.0 | 0.00 | 0.00 | 0.00 | 34 | 1011.7 |
| 20260901231145 | 75 | 211 | 1.0 | 7.0 | 0.00 | 0.00 | 0.00 | 33 | 1011.7 |
| 20260901230943 | 76 | 212 | 1.0 | 7.0 | 0.00 | 0.00 | 0.00 | 33 | 1011.7 |
| 20260901230731 | 76 | 209 | 1.0 | 7.0 | 0.00 | 0.00 | 0.00 | 33 | 1011.7 |
| 20260901230524 | 75 | 220 | 0.0 | 4.0 | 0.00 | 0.00 | 0.00 | 34 | 1011.6 |
| 20260901230317 | 75 | 220 | 0.0 | 4.0 | 0.00 | 0.00 | 0.00 | 35 | 1011.7 |
| 20260901230115 | 76 | 196 | 0.0 | 3.0 | 0.00 | 0.00 | 0.00 | 35 | 1011.7 |
| 20260901225910 | 76 | 196 | 0.0 | 3.0 | 0.00 | 0.00 | 0.00 | 33 | 1011.7 |
| 20260901225658 | 77 | 210 | 0.0 | 6.0 | 0.00 | 0.00 | 0.00 | 34 | 1011.8 |
| 20260901225455 | 77 | 210 | 0.0 | 6.0 | 0.00 | 0.00 | 0.00 | 33 | 1011.8 |
| 20260901225242 | 76 | 211 | 0.0 | 6.0 | 0.00 | 0.00 | 0.00 | 33 | 1011.7 |
| 20260901225033 | 76 | 211 | 0.0 | 6.0 | 0.00 | 0.00 | 0.00 | 36 | 1011.7 |
| 20260901224637 | 75 | 211 | 1.0 | 8.0 | 0.00 | 0.00 | 0.00 | 36 | 1011.8 |
| 20260901224426 | 75 | 147 | 1.0 | 8.0 | 0.00 | 0.00 | 0.00 | 35 | 1011.8 |
| 20260901224037 | 75 | 190 | 0.0 | 8.0 | 0.00 | 0.00 | 0.00 | 34 | 1011.7 |
| 20260901223834 | 76 | 201 | 0.0 | 8.0 | 0.00 | 0.00 | 0.00 | 35 | 1011.9 |
| 20260901223630 | 76 | 210 | 1.0 | 8.0 | 0.00 | 0.00 | 0.00 | 36 | 1011.8 |
| 20260901223429 | 76 | 210 | 1.0 | 8.0 | 0.00 | 0.00 | 0.00 | 33 | 1011.9 |
| 20260901223216 | 76 | 212 | 1.0 | 8.0 | 0.00 | 0.00 | 0.00 | 35 | 1011.8 |
| 20260901223007 | 76 | 212 | 1.0 | 8.0 | 0.00 | 0.00 | 0.00 | 34 | 1011.9 |
| 20260901222759 | 76 | 212 | 0.0 | 5.0 | 0.00 | 0.00 | 0.00 | 34 | 1011.8 |
| 20260901222547 | 76 | 205 | 1.0 | 7.0 | 0.00 | 0.00 | 0.00 | 35 | 1011.8 |
| 20260901222340 | 77 | 204 | 1.0 | 7.0 | 0.00 | 0.00 | 0.00 | 33 | 1011.8 |
| 20260901222131 | 77 | 202 | 2.0 | 7.0 | 0.00 | 0.00 | 0.00 | 32 | 1011.8 |
| 20260901221921 | 77 | 277 | 2.0 | 7.0 | 0.00 | 0.00 | 0.00 | 33 | 1011.8 |
| 20260901221526 | 77 | 215 | 3.0 | 7.0 | 0.00 | 0.00 | 0.00 | 33 | 1012.0 |
| 20260901221323 | 77 | 227 | 2.0 | 6.0 | 0.00 | 0.00 | 0.00 | 33 | 1011.9 |
| 20260901221115 | 77 | 215 | 2.0 | 6.0 | 0.00 | 0.00 | 0.00 | 33 | 1011.8 |
| 20260901220903 | 77 | 225 | 2.0 | 6.0 | 0.00 | 0.00 | 0.00 | 33 | 1011.9 |
| 20260901220515 | 77 | 217 | 2.0 | 7.0 | 0.00 | 0.00 | 0.00 | 33 | 1012.0 |
| 20260901220313 | 77 | 227 | 2.0 | 7.0 | 0.00 | 0.00 | 0.00 | 33 | 1012.0 |
| 20260901220105 | 77 | 228 | 2.0 | 7.0 | 0.00 | 0.00 | 0.00 | 33 | 1012.0 |
| 20260901215853 | 77 | 209 | 2.0 | 7.0 | 0.00 | 0.00 | 0.00 | 31 | 1012.1 |
| 20260901215651 | 77 | 215 | 1.0 | 7.0 | 0.00 | 0.00 | 0.00 | 32 | 1012.0 |
| 20260901215444 | 77 | 228 | 1.0 | 8.0 | 0.00 | 0.00 | 0.00 | 32 | 1012.0 |
| 20260901215052 | 76 | 221 | 1.0 | 8.0 | 0.00 | 0.00 | 0.00 | 32 | 1012.1 |
| 20260901214704 | 76 | 215 | 1.0 | 8.0 | 0.00 | 0.00 | 0.00 | 37 | 1012.1 |
| 20260901214457 | 76 | 214 | 2.0 | 8.0 | 0.00 | 0.00 | 0.00 | 35 | 1012.0 |
| 20260901214254 | 77 | 142 | 2.0 | 8.0 | 0.00 | 0.00 | 0.00 | 32 | 1012.1 |
| 20260901214051 | 77 | 212 | 1.0 | 8.0 | 0.00 | 0.00 | 0.00 | 32 | 1012.1 |
| 20260901213654 | 76 | 214 | 1.0 | 8.0 | 0.00 | 0.00 | 0.00 | 33 | 1012.2 |
| 20260901213444 | 76 | 222 | 0.0 | 7.0 | 0.00 | 0.00 | 0.00 | 35 | 1012.1 |
| 20260901213054 | 76 | 85 | 1.0 | 6.0 | 0.00 | 0.00 | 0.00 | 36 | 1012.2 |
| 20260901212702 | 76 | 209 | 1.0 | 6.0 | 0.00 | 0.00 | 0.00 | 36 | 1012.2 |
| 20260901212457 | 76 | 209 | 1.0 | 6.0 | 0.00 | 0.00 | 0.00 | 33 | 1012.2 |
| 20260901212244 | 76 | 229 | 1.0 | 6.0 | 0.00 | 0.00 | 0.00 | 33 | 1012.2 |
| 20260901212038 | 76 | 224 | 1.0 | 6.0 | 0.00 | 0.00 | 0.00 | 36 | 1012.2 |
| 20260901211832 | 75 | 257 | 2.0 | 8.0 | 0.00 | 0.00 | 0.00 | 32 | 1012.2 |
| 20260901211436 | 76 | 207 | 1.0 | 8.0 | 0.00 | 0.00 | 0.00 | 33 | 1012.2 |
| 20260901211234 | 76 | 229 | 2.0 | 8.0 | 0.00 | 0.00 | 0.00 | 31 | 1012.1 |
| 20260901211033 | 76 | 229 | 1.0 | 8.0 | 0.00 | 0.00 | 0.00 | 33 | 1012.1 |
| 20260901210829 | 75 | 218 | 1.0 | 12.0 | 0.00 | 0.00 | 0.00 | 33 | 1012.2 |
| 20260901210619 | 75 | 217 | 1.0 | 12.0 | 0.00 | 0.00 | 0.00 | 32 | 1012.2 |
| 20260901210409 | 75 | 215 | 0.0 | 12.0 | 0.00 | 0.00 | 0.00 | 38 | 1012.3 |
| 20260901210202 | 75 | 179 | 1.0 | 12.0 | 0.00 | 0.00 | 0.00 | 39 | 1012.2 |
| 20260901205810 | 76 | 244 | 2.0 | 12.0 | 0.00 | 0.00 | 0.00 | 37 | 1012.2 |
| 20260901205559 | 76 | 244 | 2.0 | 12.0 | 0.00 | 0.00 | 0.00 | 41 | 1012.3 |
| 20260901205354 | 76 | 262 | 2.0 | 12.0 | 0.00 | 0.00 | 0.00 | 34 | 1012.3 |
| 20260901205146 | 76 | 191 | 2.0 | 12.0 | 0.00 | 0.00 | 0.00 | 37 | 1012.3 |
| 20260901204940 | 77 | 232 | 1.0 | 12.0 | 0.00 | 0.00 | 0.00 | 32 | 1012.3 |
| 20260901204730 | 77 | 210 | 1.0 | 6.0 | 0.00 | 0.00 | 0.00 | 32 | 1012.3 |
| 20260901204526 | 77 | 217 | 1.0 | 6.0 | 0.00 | 0.00 | 0.00 | 33 | 1012.3 |
| 20260901204313 | 76 | 217 | 1.0 | 7.0 | 0.00 | 0.00 | 0.00 | 32 | 1012.2 |
| 20260901204104 | 76 | 20 | 1.0 | 7.0 | 0.00 | 0.00 | 0.00 | 37 | 1012.3 |
| 20260901203856 | 76 | 48 | 1.0 | 7.0 | 0.00 | 0.00 | 0.00 | 37 | 1012.3 |
| 20260901203652 | 76 | 225 | 1.0 | 7.0 | 0.00 | 0.00 | 0.00 | 35 | 1012.3 |
| 20260901203113 | 76 | 210 | 1.0 | 8.0 | 0.00 | 0.00 | 0.00 | 36 | 1012.2 |
| 20260901202909 | 76 | 212 | 1.0 | 8.0 | 0.00 | 0.00 | 0.00 | 35 | 1012.3 |
| 20260901202657 | 76 | 249 | 1.0 | 8.0 | 0.00 | 0.00 | 0.00 | 37 | 1012.3 |
| 20260901202452 | 76 | 219 | 1.0 | 8.0 | 0.00 | 0.00 | 0.00 | 37 | 1012.2 |
| 20260901202239 | 75 | 218 | 1.0 | 8.0 | 0.00 | 0.00 | 0.00 | 37 | 1012.2 |
| 20260901201849 | 75 | 249 | 1.0 | 8.0 | 0.00 | 0.00 | 0.00 | 38 | 1012.3 |
| 20260901201636 | 75 | 198 | 1.0 | 8.0 | 0.00 | 0.00 | 0.00 | 38 | 1012.3 |
| 20260901201424 | 75 | 198 | 2.0 | 8.0 | 0.00 | 0.00 | 0.00 | 37 | 1012.4 |
| 20260901201217 | 75 | 219 | 1.0 | 6.0 | 0.00 | 0.00 | 0.00 | 37 | 1012.3 |
| 20260901201004 | 74 | 281 | 2.0 | 6.0 | 0.00 | 0.00 | 0.00 | 38 | 1012.4 |
| 20260901200756 | 74 | 207 | 2.0 | 6.0 | 0.00 | 0.00 | 0.00 | 39 | 1012.4 |
| 20260901200544 | 74 | 209 | 2.0 | 8.0 | 0.00 | 0.00 | 0.00 | 39 | 1012.4 |
| 20260901200339 | 74 | 213 | 2.0 | 8.0 | 0.00 | 0.00 | 0.00 | 39 | 1012.3 |
| 20260901195943 | 74 | 217 | 2.0 | 8.0 | 0.00 | 0.00 | 0.00 | 39 | 1012.4 |
| 20260901195735 | 74 | 202 | 2.0 | 8.0 | 0.00 | 0.00 | 0.00 | 39 | 1012.4 |
| 20260901195534 | 74 | 227 | 2.0 | 8.0 | 0.00 | 0.00 | 0.00 | 38 | 1012.4 |
| 20260901195325 | 74 | 211 | 1.0 | 8.0 | 0.00 | 0.00 | 0.00 | 40 | 1012.4 |
| 20260901195113 | 74 | 231 | 1.0 | 8.0 | 0.00 | 0.00 | 0.00 | 39 | 1012.4 |
| 20260901194904 | 74 | 215 | 2.0 | 8.0 | 0.00 | 0.00 | 0.00 | 41 | 1012.4 |
| 20260901194658 | 74 | 207 | 1.0 | 6.0 | 0.00 | 0.00 | 0.00 | 41 | 1012.4 |
| 20260901194454 | 73 | 242 | 2.0 | 6.0 | 0.00 | 0.00 | 0.00 | 42 | 1012.5 |
| 20260901194246 | 73 | 221 | 2.0 | 6.0 | 0.00 | 0.00 | 0.00 | 41 | 1012.5 |
| 20260901194039 | 73 | 208 | 2.0 | 6.0 | 0.00 | 0.00 | 0.00 | 40 | 1012.4 |
| 20260901193832 | 73 | 212 | 1.0 | 6.0 | 0.00 | 0.00 | 0.00 | 42 | 1012.5 |
| 20260901193621 | 73 | 207 | 2.0 | 6.0 | 0.00 | 0.00 | 0.00 | 40 | 1012.4 |
| 20260901193410 | 73 | 211 | 1.0 | 6.0 | 0.00 | 0.00 | 0.00 | 41 | 1012.4 |
| 20260901193208 | 73 | 221 | 1.0 | 6.0 | 0.00 | 0.00 | 0.00 | 41 | 1012.5 |
| 20260901192957 | 73 | 209 | 1.0 | 6.0 | 0.00 | 0.00 | 0.00 | 40 | 1012.5 |
| 20260901192751 | 73 | 209 | 1.0 | 8.0 | 0.00 | 0.00 | 0.00 | 40 | 1012.5 |
| 20260901192543 | 73 | 209 | 1.0 | 8.0 | 0.00 | 0.00 | 0.00 | 40 | 1012.5 |
| 20260901192341 | 73 | 209 | 1.0 | 8.0 | 0.00 | 0.00 | 0.00 | 41 | 1012.5 |
| 20260901192129 | 73 | 208 | 1.0 | 8.0 | 0.00 | 0.00 | 0.00 | 40 | 1012.5 |
| 20260901191922 | 73 | 208 | 1.0 | 8.0 | 0.00 | 0.00 | 0.00 | 42 | 1012.5 |
| 20260901191719 | 73 | 208 | 1.0 | 7.0 | 0.00 | 0.00 | 0.00 | 42 | 1012.5 |
| 20260901191514 | 73 | 209 | 2.0 | 7.0 | 0.00 | 0.00 | 0.00 | 43 | 1012.5 |
| 20260901191307 | 73 | 144 | 2.0 | 7.0 | 0.00 | 0.00 | 0.00 | 43 | 1012.5 |
| 20260901191102 | 73 | 211 | 2.0 | 7.0 | 0.00 | 0.00 | 0.00 | 42 | 1012.4 |
| 20260901190850 | 73 | 224 | 2.0 | 7.0 | 0.00 | 0.00 | 0.00 | 41 | 1012.5 |
| 20260901190645 | 73 | 231 | 1.0 | 6.0 | 0.00 | 0.00 | 0.00 | 41 | 1012.4 |
| 20260901190250 | 73 | 206 | 1.0 | 5.0 | 0.00 | 0.00 | 0.00 | 43 | 1012.4 |
| 20260901190040 | 73 | 206 | 0.0 | 5.0 | 0.00 | 0.00 | 0.00 | 42 | 1012.5 |
| 20260901185836 | 72 | 194 | 0.0 | 5.0 | 0.00 | 0.00 | 0.00 | 42 | 1012.5 |
| 20260901185630 | 72 | 209 | 0.0 | 5.0 | 0.00 | 0.00 | 0.00 | 43 | 1012.5 |
| 20260901185423 | 72 | 224 | 0.0 | 3.0 | 0.00 | 0.00 | 0.00 | 43 | 1012.6 |